Regional Weather Roundup
Issued by NWS

Home | Current Version | Previous Version | Graphics & Text | Print | Product List | Glossary Off
Versions: 1 2 3 4 5 6 7 8 9 10 11 12 13 14 15 16 17 18 19 20 21 22 23 24 25 26 27 28 29 30 31 32 33 34 35 36 37 38 39 40 41 42 43 44 45 46 47 48 49 50

548
ASUS43 KTOP 011359
RWRKS

WEATHER ROUNDUP FOR KANSAS
NATIONAL WEATHER SERVICE GOODLAND KS
900 AM CDT SAT OCT 01 2016

NOTE:  "FAIR" INDICATES FEW OR NO CLOUDS BELOW 12,000 FEET WITH NO
SIGNIFICANT WEATHER AND/OR OBSTRUCTIONS TO VISIBILITY.

KSZ001>006-013>018-027>032-041>047-011500-
NORTHWEST KANSAS

CITY           SKY/WX    TMP DP  RH WIND       PRES   REMARKS
GOODLAND       CLOUDY    54  46  74 S6        30.11F
HAYS           SUNNY     54  43  66 SE3       30.13S
HILL CITY      SUNNY     53  49  86 E3        30.13F
RUSSELL        SUNNY     56  49  77 S5        30.11S
$$

KSZ061>065-074>080-084>089-011500-
SOUTHWEST KANSAS

CITY           SKY/WX    TMP DP  RH WIND       PRES   REMARKS
DODGE CITY     MOSUNNY   60  47  61 SE12      30.11R
ELKHART          N/A     57  47  69 W6          N/A
GARDEN CITY    SUNNY     58  47  66 SE12      30.09R
GREAT BEND     SUNNY     54  43  66 CALM      30.12S
LIBERAL        SUNNY     59  48  67 SE7       30.10R
$$

KSZ066>073-081>083-090>101-011500-
SOUTHEAST KANSAS

CITY           SKY/WX    TMP DP  RH WIND       PRES   REMARKS
CHANUTE        CLOUDY    59  55  87 CALM      30.13R
COFFEYVILLE    CLOUDY    56  55  97 CALM      30.13R
HUTCHINSON     CLOUDY    56  52  86 CALM      30.13R
MEDICINE LODGE   N/A     60  49  66 SE6       30.11S
NEWTON         CLOUDY    59  53  80 E5        30.13S
PARSONS        MOSUNNY   56  54  93 CALM      30.13S
WICHITA INTL   CLOUDY    60  53  77 CALM      30.12R
WICHITA JABRA  CLOUDY    56  54  93 CALM      30.12S
WICHITA MCCONL CLOUDY    58  50  74 SE5       30.12S
WINFIELD       CLOUDY    58  53  84 CALM      30.13R
$$

KSZ007>012-019>026-033>040-048>060-102>105-011500-
NORTHEAST KANSAS

CITY           SKY/WX    TMP DP  RH WIND       PRES   REMARKS
CONCORDIA      SUNNY     53  51  93 CALM      30.14R
EMPORIA        MOSUNNY   56  53  90 CALM      30.13S
LAWRENCE       MOSUNNY   54  54 100 CALM      30.13F
MANHATTAN      PTSUNNY   55  53  93 E3        30.14R
OLATHE IND     SUNNY     58  56  93 N3        30.14S
OLATHE EXE     SUNNY     58  54  86 N5        30.13S
SALINA         MOSUNNY   56  51  84 CALM      30.13S
TOPEKA BILLARD MOSUNNY   54  52  93 CALM      30.14S FOG
TOPEKA FORBES  FOG       54  53  97 CALM      30.14R VSB 1/8
$$




USA.gov is the U.S. government's official web portal to all federal, state and local government web resources and services.